www.pogodaiklimat.ru

Погода и климат >> Архив погоды >> Ливия >> Джалу


ПОГОДА в Джалу

  • Прогноз погоды в Джалу
  • Монитор погоды в Джалу

АРХИВ ПОГОДЫ в Джалу

Время (UTC), дата Ветер
(напр.,м/с)
 
Видим.   Явления Облачность Т
(С)
Тd
(С)
f
(%)
Тe
(С)
Тes
(С)
Комфортность P
(гПа)
Po
(гПа)
Тmin
(С)
Tmax
(С)
R
(мм)
R24
(мм)
S
(см)
00 13.09 СВ 5 10 км ясно +26.5 +17.8 59 +31 +31 душно 1015.0 1010.9
03 13.09 С 3 10 км ясно +24.5 +18.2 68 +29 +29 душно 1015.8 1010.7
06 13.09 СЗ 5 20 км ясно +25.0 +18.8 68 +30 +31 душно 1016.3 1011.2 +24.5
09 13.09 С 5 20 км 4/0
[Ac trans]
+28.6 +18.8 55 +34 +39 очень
душно
1017.4 1012.3
12 13.09 С 3 20 км ясно +32.5 +15.9 37 +35 +49 душно 1015.3 1010.2
15 13.09 С 8 20 км 4/0
[Ac cuf]
+34.0 +15.2 32 +36 +36 душно 1013.0 1007.9
18 13.09 СЗ 9 10 км 4/0
[Ac cuf]
+31.5 +18.1 45 +36 +36 очень
душно
1013.5 1008.4 +36.6
21 13.09 С 6 20 км ясно +29.0 +17.8 51 +33 +33 очень
душно
1010.1 1010.1
00 14.09 С 9 10 км ясно +26.7 +17.8 58 +31 +31 душно 1014.7 1009.6
09 14.09 С 4 20 км ясно +25.4 +15.2 53 +28 +39 жарко 1016.0 1010.8
12 14.09 СЗ 7 20 км ясно +31.2 +13.6 34 +32 +36 жарко 1015.5 1010.3
15 14.09 С 5 20 км 4/0
[Ac cuf]
+32.0 +12.9 31 +33 +34 жарко 1013.1 1007.9
18 14.09 СЗ 5 10 км ясно +30.0 +12.3 34 +31 +31 жарко 1013.1 1007.9 +32.5
06 15.09 С 6 20 км ясно +21.8 +13.6 60 +25 +26 комфорт 1016.3 1011.1 +21.5
09 15.09 СЗ 5 20 км ясно +27.5 +12.1 38 +29 +36 жарко 1016.9 1011.7
12 15.09 СЗ 5 20 км ясно +30.5 +11.8 32 +31 +39 жарко 1014.1 1009.0
15 15.09 СЗ 9 8000 м пыльный позёмок ясно +32.2 +9.2 24 +31 +31 жарко 1011.9 1006.7
18 15.09 СЗ 6 8000 м пыль ясно +30.6 +10.2 28 +30 +30 жарко 1011.9 1006.7 +32.3
09 16.09 С 4 20 км ясно +26.5 +16.4 54 +30 +41 душно 1014.2 1009.0
12 16.09 С 4 20 км ясно +30.4 +15.5 41 +33 +44 душно 1012.7 1007.5
15 16.09 С 4 20 км ясно +32.7 +14.2 33 +34 +36 очень
жарко
1012.3 1007.2
18 16.09 С 3 10 км ясно +30.3 +13.8 37 +32 +32 жарко 1013.4 1008.3 +32.8
21 16.09 СЗ 3 10 км ясно +27.0 +13.2 43 +29 +29 жарко 1013.8 1008.7
03 17.09 С 3 10 км ясно +23.0 +13.8 56 +26 +26 жарко 1013.8 1008.6
06 17.09 С 2 20 км ясно +24.5 +11.3 44 +26 +28 жарко 1014.9 1009.7 +23.0
12 17.09 С 2 20 км ясно +32.3 +15.4 36 +35 +49 очень
душно
1014.6 1009.5
15 17.09 С 4 20 км ясно +33.2 +13.1 30 +34 +36 очень
жарко
1013.0 1007.9
18 17.09 С 3 10 км ясно +31.0 +11.4 30 +31 +31 жарко 1012.3 1007.2 +33.5
21 17.09 С 3 10 км ясно +26.9 +8.4 31 +27 +27 жарко 1014.1 1009.0
00 18.09 С 2 18 км ясно +23.8 +13.8 53 +26 +26 жарко 1013.7 1008.6
03 18.09 С 3 10 км ясно +22.9 +14.0 57 +26 +26 жарко 1013.2 1008.1
06 18.09 С 1 20 км ясно +20.3 +13.9 67 +24 +26 комфорт 1014.9 1009.8 +20.2
09 18.09 штиль 0 20 км ясно +27.5 +17.2 53 +31 +51 опасность
солнечного
удара
1015.2 1010.1
12 18.09 штиль 0 20 км ясно +33.5 +15.2 33 +35 +55 опасность
солнечного
удара
1013.7 1008.6
15 18.09 штиль 0 20 км ясно +34.0 +15.9 34 +36 +40 душно 1013.8 1008.7
18 18.09 С 4 10 км ясно +30.5 +11.8 32 +31 +31 жарко 1013.4 1008.2 +34.8
21 18.09 С 3 10 км ясно +27.5 +12.1 38 +29 +29 жарко 1014.4 1009.2
00 19.09 С 3 10 км ясно +25.0 +10.8 41 +26 +26 жарко 1013.6 1008.4
03 19.09 С 3 10 км ясно +23.5 +9.9 42 +25 +25 комфорт 1013.1 1007.9
06 19.09 штиль 0 10 км ясно +20.8 +19 +22 1014.3 1009.1 +20.5
18 19.09 штиль 0 10 км ясно +31.5 +14.5 36 +33 +33 жарко 1012.4 1009.2 +35.0
21 19.09 В 2 10 км ясно +27.7 +12.8 40 +29 +29 жарко 1013.9 1008.8

 

Местоположение метеостанции Джалу (Ливия): широта 29.03 долгота 21.57 высота над уровнем моря 60 м.

В архиве по умолчанию представлена погода в Джалу за последнюю неделю. Архивные данные за месяц целиком и за предыдущие месяцы, начиная с января 2011 года, Вы можете получить, выбрав интересующий диапазон дат из раскрывающегося списка и нажав кнопку "Ввод!".


*Определитесь, кто Вы:
робот инопланетянин человек

Внимание! Время в таблицах - всемирное. Для получения местного времени необходимо прибавить поправку, которая равна 1 ч.

Смотрите также архив погоды в соседних городах и на ближайших метеорологических станциях:

Погода в Мараде (Ливия) (223 км)
Погода в Тазирбу (Ливия) (362 км)
Погода в Бенгази (Ливия) (363 км)
Погода в Сиве (Египет) (365 км)
Погода в Эль-Мардже (Ливия) (394 км)
Погода в Плато Саллум (Египет) (443 км)
Погода в Сирте (Ливия) (537 км)
Погода в Хуне (Ливия) (548 км)
Погода в Куфре (Ливия) (562 км)
Погода в Мерса Матрух (Египет) (600 км)

Пояснения к столбцам:

Ветер - указаны скорость ветра в м/с - средняя за 10 мин, порывы в срок и между сроками (в фигурных скобках) и направление, откуда дует ветер: С - северный, СВ - северо-восточный, В - восточный, ЮВ - юго-восточный, Ю - южный, ЮЗ - юго-западный, З - западный, СЗ - северо-западный.
Видимость - горизонтальная дальность видимости в метрах или километрах. При видимости от 1 до 10 км при отсутствии осадков обычно наблюдается дымка, при ухудшении видимости до 1 км и менее - туман. В сухую погоду видимость может ухудшаться дымом, пылью или мглою.
Явления - указаны атмосферные явления, наблюдавшиеся в срок или в последний час перед сроком; фигурными скобками обозначены явления, наблюдавшиеся между сроками (за 1-3 часа до срока); квадратными скобками обозначены град или гололедные отложения с указанием их диаметра в мм.
Облачность - указаны через наклонную черту общая и нижняя облачность в баллах и высота нижней границы облаков в метрах; квадратными скобками обозначены формы облаков: Ci - перистые, Cs - перисто-слоистые, Cc - перисто-кучевые, Ac - высококучевые, As - высокослоистые, Sc - слоисто-кучевые, Ns - слоисто-дождевые, Cu - кучевые, Cb - кучево-дождевые. Подробнее классификацию облаков см. в Атласе облаков (PDF).
T - Температура воздуха - температура, измеренная на высоте 2 м над землей.
Td - Температура точки росы - температура, при понижении до которой содержащийся в воздухе водяной пар достигнет насыщения.
f - Относительная влажность воздуха - влажноcть воздуха, измеренная на высоте 2 м над землей.
Te - Эффективная температура - температура, которую ощущает одетый по сезону человек в тени. Характеристика душности погоды. При расчете учитывается влияние влажности воздуха и скорости ветра на теплоощущения человека.
Tes - Эффективная температура на солнце - температура, которую ощущает человек, с поправкой на солнечный нагрев. Характеристика знойности погоды. Зависит от высоты солнца над горизонтом, облачности и скорости ветра. Ночью, в пасмурную погоду, а также при ветре 12 м/с и более поправка равна нулю.
P - Атмосферное давление - приведенное к уровню моря атмосферное давление.
Po - Атмосферное давление - измеренное на уровне метеостанции атмосферное давление.
Tmin - Минимальная температура - минимум температуры воздуха на высоте 2 м над землей.
Tmax - Максимальная температура - максимум температуры воздуха на высоте 2 м над землей.
R - Количество осадков - Количество выпавших осадков за период времени, мм. При наведении курсора мыши на число - период времени, за который выпало указанное количество осадков.
R24 - Количество осадков - Количество выпавших осадков за 24 часа, мм.
S - Снежный покров - Высота снежного покрова, см. При наведении курсора мыши на число - состояние снежного покрова и степень покрытия местности в баллах.